Hourly Weather Roundup
Issued by NWS Central Illinois

Home | Current Version | Previous Version | Text Only | Print | Product List | Glossary On
Versions: 1 2 3 4 5 6 7 8 9 10 11 12 13 14 15 16 17 18 19 20 21 22 23 24 25 26 27 28 29 30 31 32 33 34 35 36 37 38 39 40 41 42 43 44 45 46 47 48 49 50
000
NZUS43 KILX 131610
HWRILX

AREA WEATHER ROUNDUP
NATIONAL WEATHER SERVICE, LINCOLN IL
1100 AM CDT SUN JUL 13 2014


CITY           SKY/WX    TMP DP  RH WIND       PRES   REMARKS
BLOOMINGTON    MOSUNNY   77  67  71 NW10      29.99R
CHAMPAIGN      CLOUDY    76  72  87 W9        29.98R
DECATUR        CLOUDY    77  72  84 W8        29.98R
EFFINGHAM      PTSUNNY   83  68  60 W8        29.99R HX  86
FLORA          MOSUNNY   84  72  66 W8        29.99R HX  89
GALESBURG      CLOUDY    75  69  81 W3        30.00F
JACKSONVILLE   CLOUDY    78  74  85 N8        29.98  HX  81
LACON          CLOUDY    72  65  80 NW5       29.98S
LAWRENCEVILLE  MOSUNNY   84  74  71 SW10      29.97S HX  91
LITCHFIELD     PTSUNNY   81  72  75 SW8       29.99S HX  85
$$


CITY           SKY/WX    TMP DP  RH WIND       PRES   REMARKS
LINCOLN        PTSUNNY   80  71  74 W5        29.94S HX  83
MACOMB         PTSUNNY   72  68  87 NW8       30.02F
MATTOON        PTSUNNY   79  71  76 W13       29.98R HX  82
MT CARMEL AP   MOSUNNY   88  77  70 SW10      29.97S HX 100
OLNEY-NOBLE AP MOSUNNY   84  73  70 CALM      29.99R HX  91
PARIS          CLOUDY    78  72  82 W10       29.99R HX  81
PEORIA         PTSUNNY   77  67  71 N8        29.99R
PONTIAC        PTSUNNY   75  70  83 NW7       29.98R
RANTOUL        PTSUNNY   80  69  69 W12       29.97R HX  83
ROBINSON       PTSUNNY   85  75  72 W7        29.98R HX  94
SPRINGFIELD    PTSUNNY   78  72  81 NW5       29.98R HX  80
TAYLORVILLE    CLOUDY    73  72  94 W6        29.99R
$$

...REGIONAL REPORTS...


CITY           SKY/WX    TMP DP  RH WIND       PRES   REMARKS
CHICAGO O`HARE MOSUNNY   76  64  66 W9        29.94S
KANKAKEE       PTSUNNY   74  68  79 NW6       29.97S
MOLINE         MOSUNNY   76  67  73 W5        29.98F
MOUNT VERNON   MOSUNNY   88  73  62 SW12      30.00S HX  96
PITTSFIELD     CLOUDY    77  72  84 N7        30.00R
QUINCY         PTSUNNY   77  69  76 N7        29.99F
ROCKFORD       MOSUNNY   75  65  70 W7        29.98S
$$


CITY           SKY/WX    TMP DP  RH WIND       PRES   REMARKS
BURLINGTON     PTSUNNY   73  68  84 VRB5      30.00F
CEDAR RAPIDS   PTSUNNY   77  69  76 W8        29.99F
DES MOINES     MOSUNNY   81  69  67 W7        30.01F HX  84
KIRKSVILLE     PTSUNNY   78  69  73 VRB3      30.03S HX  80
OTTUMWA        SUNNY     78  69  73 NW7       30.01F HX  80
ST LOUIS       PTSUNNY   88  70  55 SW8       29.99F HX  93
$$


CITY           SKY/WX    TMP DP  RH WIND       PRES   REMARKS
TERRE HAUTE    CLOUDY    80  70  71 W8        29.97R HX  83
EVANSVILLE     MOSUNNY   86  74  67 SW12      30.01S HX  94
INDIANAPOLIS   CLOUDY    81  69  67 W10       29.96S HX  84
LAFAYETTE      CLOUDY    76  69  79 NW13      29.95R
MADISON        MOSUNNY   78  64  61 W9        29.93S HX  80
MILWAUKEE      MOSUNNY   78  61  55 W10       29.91S HX  80
$$




USA.gov is the U.S. government's official web portal to all federal, state and local government web resources and services.